{"data":{"norad_id":57951,"epoch":"2026-09-20T04:10:33.366720Z","epoch_age_seconds":165754,"freshness":"FRESH","line1":"1 57951U 23148S   26263.17399730  .00001109  00000+0  43970-4 0  9990","line2":"2 57951  53.1610 197.0140 0001338  82.9085 277.2070 15.34390477168254","mean_motion":15.34390477,"eccentricity":0.0001338,"inclination_deg":53.161,"raan_deg":197.014,"arg_perigee_deg":82.9085,"mean_anomaly_deg":277.207,"bstar":4.397e-5,"rev_number":16825,"period_min":93.848340535549,"perigee_km":461.81623650509,"apogee_km":463.64685292766,"semimajor_km":6840.8685447164,"source":"CELESTRAK","updated_at":"2026-09-21T09:00:33.747458Z"}}